Flag for U.S.A. Weather past 2 weeks in Pocatello, Idaho, U.S.A.

Now
57 °F

Clear.


Feels Like: 57 °F
Forecast: 54 / 87 °F
Wind: 3 mph from Northeast

Location: Pocatello Regional Airport

Current Time: Aug 20, 2014 at 2:53:42 AM

Latest Report: Aug 20, 2014 at 1:53 AM


Visibility: 10 mi

Pressure: 29.76 "Hg

Humidity: 93%

Dew point: 55 °F

Location of PocatelloLocation

Historic Weather in Pocatello — Graph

°F

Pocatello temperature yesterday

Maximum temperature yesterday: 85 °F (at 4:53 PM)
Minimum temperature yesterday: 53 °F (at 1:53 AM)
Average temperature yesterday: 68 °F

Past Weeks' High & Low Weather Summary

 TemperatureHumidityPressure
High93 °F (Aug 11, 1:53 PM)100% (Aug 5, 12:53 AM)30.19 "Hg (Aug 5, 12:53 AM)
Low50 °F (Aug 16, 5:53 AM)14% (Aug 17, 4:53 PM)29.68 "Hg (Aug 19, 5:53 PM)
Average69 °F63%29.98 "Hg
* Reported Aug 5 12:53 AM — Aug 20 12:53 AM, Pocatello, Weather by CustomWeather, © 2014

Note: Actual official high and low records may vary slightly from our data, if they occured in-between our weather recording intervals... More about our weather records

Advertising

Pocatello weather history for previous 24 hours

 ConditionsComfort  
Time TempWeatherWind HumidityBarometerVisibility
12:53 AM
Aug 20
61 °FPassing clouds.8 mph81%29.78 "Hg10 mi
11:53 PM
Aug 19
60 °FPassing clouds.5 mph86%29.78 "Hg10 mi
10:53 PM59 °FPassing clouds.9 mph87%29.82 "Hg10 mi
9:53 PM63 °FThundershowers. Overcast.14 mph70%29.86 "Hg10 mi
8:53 PM65 °FMostly cloudy.5 mph56%29.80 "Hg10 mi
7:53 PM72 °FCloudy.8 mph38%29.77 "Hg10 mi
6:53 PM80 °FScattered clouds.17 mph30%29.70 "Hg10 mi
5:53 PM83 °FPassing clouds.21 mph26%29.68 "Hg10 mi
4:53 PM85 °FPassing clouds.20 mph27%29.69 "Hg10 mi
3:53 PM83 °FPassing clouds.14 mph27%29.71 "Hg10 mi
2:53 PM83 °FScattered clouds.16 mph27%29.75 "Hg10 mi
1:53 PM82 °FPartly sunny.18 mph29%29.78 "Hg10 mi
12:53 PM79 °FPartly sunny.10 mph32%29.79 "Hg10 mi
11:53 AM79 °FPartly sunny.20 mph36%29.79 "Hg10 mi
10:53 AM73 °FSunny.7 mph48%29.80 "Hg10 mi
9:53 AM70 °FSunny.13 mph55%29.78 "Hg10 mi
8:53 AM67 °FSunny.6 mph57%29.77 "Hg10 mi
7:53 AM61 °FClear.8 mph70%29.78 "Hg10 mi
6:53 AM57 °FPassing clouds.5 mph78%29.77 "Hg10 mi
5:53 AM55 °FClear.3 mph83%29.79 "Hg10 mi
4:53 AM57 °FClear.5 mph81%29.77 "Hg10 mi
3:53 AM59 °FClear.3 mph69%29.76 "Hg10 mi
2:53 AM55 °FClear.5 mph80%29.76 "Hg10 mi
Weather by CustomWeather, © 2014

See weather overviewHow to use our weather pages